Miscellaneous Local Product
Issued by NWS North Platte, NE

Home | Current Version | Previous Version | Text Only | Print | Product List | Glossary On
Versions: 1 2 3 4 5 6 7 8 9 10 11 12 13 14 15 16 17 18 19 20 21 22 23 24 25 26 27 28 29 30 31 32 33 34 35 36 37 38 39 40 41 42 43 44 45 46 47 48 49 50
000
AXUS43 KLBF 312310
MISLBF


WESTERN AND NORTH CENTRAL NEBRASKA HOURLY WEATHER ROUNDUP
NATIONAL WEATHER SERVICE NORTH PLATTE NE
600 PM CDT THU JUL 31 2014

***STATIONS NOT REPORTING VARIABLES SUCH AS SKY/WEATHER OR
PRESSURE ARE PROVIDED BY THE NEBRASKA DEPARTMENT OF
ROADS...RAWS...AND APRS NETWORKS...AND ARE NOT UNDER
NATIONAL WEATHER SERVICE QUALITY CONTROL***

...OBSERVATIONS IN AND NEAR THE EASTERN PANHANDLE OF NEBRASKA...

CITY           SKY/WX    TMP DP  RH WIND       PRES   REMARKS
PINE RIDGE     MOSUNNY   82  51  34 NE7       30.13F
CHADRON        SUNNY     88  45  22 NE8       30.11F
ALLIANCE       SUNNY     83  41  22 NE9       30.15F
SIDNEY         PTSUNNY   88  38  17 N9        30.17F
WHITECLAY        N/A     84  48  28 E5          N/A
RUSHVILLE        N/A     89  37  15 N17         N/A
GORDON           N/A     89  50  26 NW12        N/A
CRESCENT LAKE    N/A     84  42  22 N6G14       N/A
LISCO            N/A     89  25  10 N8          N/A
BIG SPRINGS      N/A     87  52  29 N3          N/A
$$

...OBSERVATIONS IN NORTH CENTRAL NEBRASKA...

CITY           SKY/WX    TMP DP  RH WIND       PRES   REMARKS
VALENTINE      SUNNY     88  50  27 NW8       30.08F
THEDFORD       SUNNY     86  50  29 N9G17     30.09F
AINSWORTH      MOSUNNY   82  49  32 N6G17     30.08S
O`NEILL        PTSUNNY   82  64  54 NE16      30.06R
ORD            SUNNY     87  57  35 N14       30.01S
BROKEN BOW     SUNNY     85  57  38 N16G23    30.04F
BROWNLEE         N/A     92  48  21 SW10        N/A
SPRINGVIEW       N/A     86  56  35 CALM        N/A
DUNNING          N/A     85  49  28 E12         N/A
ROSE             N/A     88  62  40 N12         N/A
NEWPORT          N/A     83  57  40 NE7         N/A
SARGENT          N/A     87  53  31 CALM        N/A
COMSTOCK         N/A     91  55  29 N12         N/A
CHAMBERS         N/A     83  60  45 N7          N/A
EWING            N/A     78  67  68 E6G13       N/A
$$

...OBSERVATIONS IN SOUTHWEST NEBRASKA AND FAR NORTHEAST COLORADO...

CITY           SKY/WX    TMP DP  RH WIND       PRES   REMARKS
WRAY             N/A     86  43  21 CALM      30.14F
HOLYOKE        FAIR      86  50  28 W5        30.14S
IMPERIAL       SUNNY     85  50  29 W7        30.11F
OGALLALA       SUNNY     86  42  21 N12       30.10S
NORTH PLATTE   SUNNY     87  48  25 NE13      30.06F
MCCOOK         MOSUNNY   89  48  24 NW6       30.06F
LEXINGTON      SUNNY     88  52  29 NW9       30.04S
PAXTON           N/A     87  47  24 N7          N/A
SUTHERLAND       N/A     92  43  17 E7          N/A
BRADY            N/A     88  49  25 CALM        N/A
GOTHENBURG       N/A     87  44  21 N8          N/A
CALLAWAY         N/A     85  59  41 NW12        N/A
$$

...SOME WEATHER OBSERVATIONS FROM AROUND THE REGION...

CITY           SKY/WX    TMP DP  RH WIND       PRES   REMARKS
DENVER         PTSUNNY   78  46  32 NE5       30.25F
LARAMIE        MOSUNNY   69  40  34 SE6       30.33F
CHEYENNE       MOSUNNY   76  43  30 E5        30.28F
SCOTTSBLUFF    SUNNY     86  43  22 VRB5      30.15F
RAPID CITY     MOSUNNY   88  47  24 MISG      30.11F
PIERRE         SUNNY     87  52  29 N13       30.02F
WINNER         FAIR      87  51  28 E8        30.04F
SIOUX FALLS    TSTM      73  62  68 W7        30.05S
OMAHA          PTSUNNY   83  57  41 E14       30.02F
GRAND ISLAND   SUNNY     89  60  37 SW8       30.00F
KANSAS CITY    PTSUNNY   82  54  37 W5        30.06S
WICHITA        MOSUNNY   83  52  34 VRB3      30.05F
HAYS           SUNNY     86  55  35 S8        30.05F
LIBERAL        MOSUNNY   81  54  39 N9G17     30.15S
GOODLAND       SUNNY     84  43  23 N5        30.15F
$$



USA.gov is the U.S. government's official web portal to all federal, state and local government web resources and services.